Weather Roundup
Issued by NWS Chicago, IL

Home | Current Version | Previous Version | Text Only | Print | Product List | Glossary On
Versions: 1 2 3 4 5 6 7 8 9 10 11 12 13 14 15 16 17 18 19 20 21 22 23 24 25 26 27 28 29 30 31 32 33 34 35 36 37 38 39 40 41 42 43 44 45 46 47 48 49 50
000
NZUS59 KLOT 020521
HRRLOT

CHICAGO AREA WEATHER ROUNDUP
NATIONAL WEATHER SERVICE CHICAGO/ROMEOVILLE IL
1200 AM CDT THU JUL 02 2015

NOTE: "FAIR" INDICATES FEW OR NO CLOUDS BELOW 12,000 FEET WITH NO
SIGNIFICANT WEATHER AND/OR OBSTRUCTIONS TO VISIBILITY.

* THESE STATIONS ARE NOT UNDER NWS QUALITY CONTROL. THEY ALSO MAY NOT
  REPORT WEATHER SUCH AS PRECIPITATION OR FOG.

ILZ005-006-012>014-019>023-020600-
NORTHEAST ILLINOIS

CITY           SKY/WX    TMP DP  RH WIND       PRES   REMARKS
OHARE          MOCLDY    54  49  83 N6        30.00S
MIDWAY         CLOUDY    59  51  75 N8        29.99S
AURORA         MOCLDY    55  49  80 NE7       30.01S
JOLIET*        CLOUDY    57  54  87 NE7       29.99F
WAUKEGAN       CLEAR     50  50 100 CALM      30.00F
DUPAGE AIRPORT PTCLDY    53  49  86 NE5       30.00S
WHEELING       PTCLDY    53  49  86 N3        30.02S
LEWIS AIRPORT* MOCLDY    55  51  85 NE8       30.00S
NORTHERLY IS     N/A     56  51  84 N9          N/A
$$

WIZ051-052-058>065-066-070>072-020600-
SOUTHEAST WISCONSIN

CITY           SKY/WX    TMP DP  RH WIND       PRES   REMARKS
MILWAUKEE      CLEAR     53  48  83 N7        30.02F
KENOSHA*       CLEAR     51  48  89 N5        30.01S
RACINE*        CLEAR     53  48  83 N7        30.03S
$$

INZ001>003-010>013-019-020-020600-
NORTHWEST INDIANA

CITY           SKY/WX    TMP DP  RH WIND       PRES   REMARKS
GARY*          NOT AVBL
MICHIGAN CITY* NOT AVBL
RENSSELAER*    NOT AVBL
VALPARAISO     CLOUDY    58  53  84 N5        29.99F
$$

LMZ740>746-020600-
SOUTHERN LAKE MICHIGAN

STATION/POSITION TIME  SKY/WX   TEMP WIND        PRES    VSBY
                                AIR  DIR/SP/G
                 (UTC)          (F)  (DEG/KT/KT) (MB)    (MI)
HARRISON CRIB    0500            56  350/ 12/ 13   N/A
BURNHAM HARBOR   0500            56   20/  8/ 12   N/A
CALUMET HARBOR   0400            56  350/  7/  9   N/A
BURNS HARBOR     0400            58   10/  9/ 11 1016.3S
MICHIGAN CITY    0500            58  350/ 12/ 14   N/A
$$

ABBREVIATIONS USED IN REMARKS
   TC - TEMPERATURE IN CELSIUS
  WCI - WIND CHILL INDEX
   HX - HEAT INDEX
  VSB - VISIBILITY
$$


USA.gov is the U.S. government's official web portal to all federal, state and local government web resources and services.